DW4707 Campi Bisenzio - Firenze IT current weather conditions

sailwx.info

Last reported at 2016-Jun-29 14:31 UTC.
Time now 2016-Jun-29 14:39 UTC

Location: N 43°50' E 011°08'.
View on Google Maps.

See reports from other nearby stations

  
Tides and Currents Weather Stations Pressure Air Temp Water Temp Dewpoint Dewpoint Depression Visibility Wind Speed Wind Dir Waves Ship Positions
date/time (UTC)wind fromknots sea level pressurealtimeterstation pressurevisibilityair tempwater tempwave heightnotes
2016-Jun-29 13:41 225 31.7
2016-Jun-29 13:36 221 1 gusting 1 31.7
2016-Jun-29 13:31 022 32.2
2016-Jun-29 13:16 32.2
2016-Jun-29 13:11 340 32.2
2016-Jun-29 13:06 042 31.7
2016-Jun-29 13:01 022 0 gusting 0 31.7
2016-Jun-29 12:51 048 32.2
2016-Jun-29 12:46 022 32.2
2016-Jun-29 12:41 003 32.2
2016-Jun-29 12:31 022 32.2
2016-Jun-29 12:26 062 32.2
2016-Jun-29 12:16 315 32.2
2016-Jun-29 12:11 354 32.2
2016-Jun-29 11:56 349 0 gusting 0 31.7
2016-Jun-29 11:51 340 31.7
2016-Jun-29 11:41 045 31.7
2016-Jun-29 11:36 161 31.7
2016-Jun-29 11:31 338 31.7
2016-Jun-29 11:16 045 0 gusting 0 31.7
2016-Jun-29 11:06 112 31.1
2016-Jun-29 11:01 022 1 gusting 1 30.6
2016-Jun-29 10:56 009 31.1
2016-Jun-29 10:46 135 0 gusting 1 30.0
2016-Jun-29 10:36 158 0 gusting 0 30.6
2016-Jun-29 10:26 022 30.6
2016-Jun-29 10:21 157 30.6
2016-Jun-29 10:16 045 1 gusting 1 30.6
2016-Jun-29 10:11 108 30.6
2016-Jun-29 10:06 175 30.0
2016-Jun-29 10:01 338 30.6
2016-Jun-29 09:51 30.0
2016-Jun-29 09:46 022 30.0
2016-Jun-29 09:41 022 30.0
2016-Jun-29 09:36 315 0 gusting 0 30.0
2016-Jun-29 09:31 045 30.6
2016-Jun-29 09:26 007 30.6
2016-Jun-29 09:21 135 30.0
2016-Jun-29 09:16 022 29.4
2016-Jun-29 09:11 022 28.9
2016-Jun-29 09:06 022 0 gusting 0 28.9
2016-Jun-29 09:01 015 29.4
2016-Jun-29 08:56 179 29.4
2016-Jun-29 08:51 022 28.9
2016-Jun-29 08:46 045 0 gusting 1 28.9
2016-Jun-29 08:41 181 0 gusting 1 28.9
2016-Jun-29 08:21 045 27.8
2016-Jun-29 08:11 170 28.3
2016-Jun-29 08:06 045 28.3
2016-Jun-29 08:01 088 1 gusting 1 27.2
2016-Jun-29 07:56 173 27.8
2016-Jun-29 07:51 022 27.2
2016-Jun-29 07:46 180 0 gusting 1 27.2
2016-Jun-29 07:41 089 27.2
2016-Jun-29 07:36 180 27.2
2016-Jun-29 07:31 045 27.2
2016-Jun-29 07:21 270 26.1
2016-Jun-29 07:16 068 26.1
2016-Jun-29 07:06 090 25.6
2016-Jun-29 07:01 158 25.6
2016-Jun-29 06:51 068 25.0
2016-Jun-29 06:46 068 25.0
2016-Jun-29 06:42 061 25.0
2016-Jun-29 06:36 202 25.0
2016-Jun-29 06:31 107 25.0
2016-Jun-29 06:21 202 24.4
2016-Jun-29 06:16 022 24.4
2016-Jun-29 06:06 180 24.4
2016-Jun-29 06:01 158 24.4
2016-Jun-29 05:51 068 23.3
2016-Jun-29 05:41 113 23.3
2016-Jun-29 05:36 135 22.8
2016-Jun-29 05:31 135 22.2
2016-Jun-29 05:26 162 21.7
2016-Jun-29 05:16 112 21.1
2016-Jun-29 05:06 158 20.6
2016-Jun-29 05:01 135 20.0
2016-Jun-29 04:56 055 19.4
2016-Jun-29 04:51 045 19.4
2016-Jun-29 04:46 112 19.4
2016-Jun-29 04:41 047 19.4
2016-Jun-29 04:36 112 19.4
2016-Jun-29 04:31 045 20.0
2016-Jun-29 04:26 135 19.4
2016-Jun-29 04:21 158 19.4
2016-Jun-29 04:16 202 19.4
2016-Jun-29 04:01 158 19.4
2016-Jun-29 03:56 015 19.4
2016-Jun-29 03:51 158 19.4
2016-Jun-29 03:41 158 19.4
2016-Jun-29 03:36 158 19.4
2016-Jun-29 03:31 158 19.4
2016-Jun-29 03:26 158 19.4
2016-Jun-29 03:16 225 19.4
2016-Jun-29 03:06 248 19.4
2016-Jun-29 02:51 202 19.4
2016-Jun-29 02:46 270 19.4
2016-Jun-29 02:41 221 19.4
2016-Jun-29 02:36 202 19.4
2016-Jun-29 02:26 180 19.4
2016-Jun-29 02:11 034 19.4
2016-Jun-29 02:06 134 20.0
2016-Jun-29 02:01 169 20.0
2016-Jun-29 01:56 346 20.0
2016-Jun-29 01:51 20.0
2016-Jun-29 01:46 180 20.0
2016-Jun-29 01:41 180 20.0
2016-Jun-29 01:36 202 20.6
2016-Jun-29 01:31 158 20.6
2016-Jun-29 01:26 158 20.6
2016-Jun-29 01:21 158 20.6
2016-Jun-29 01:11 090 20.6
2016-Jun-29 01:06 135 20.6
2016-Jun-29 00:56 112 20.6
2016-Jun-29 00:51 068 20.6
2016-Jun-29 00:46 045 21.1
2016-Jun-29 00:36 022 21.1
2016-Jun-29 00:26 022 21.1
2016-Jun-28 23:56 158 21.7
2016-Jun-28 23:36 158 21.7
2016-Jun-28 23:21 090 22.2
2016-Jun-28 23:16 135 22.2
2016-Jun-28 23:11 158 22.2
2016-Jun-28 23:01 158 22.2
2016-Jun-28 22:56 158 22.8
2016-Jun-28 22:51 158 22.8
2016-Jun-28 22:46 158 23.3
2016-Jun-28 22:41 158 23.3
2016-Jun-28 22:31 180 23.3
2016-Jun-28 22:21 180 23.3
2016-Jun-28 22:16 225 23.9
2016-Jun-28 22:06 158 23.9
2016-Jun-28 22:01 248 23.9
2016-Jun-28 21:56 248 23.9
2016-Jun-28 21:51 338 23.9
2016-Jun-28 21:46 180 23.9
2016-Jun-28 21:41 140 23.9
2016-Jun-28 21:31 180 23.9
2016-Jun-28 21:26 202 23.9
2016-Jun-28 21:21 248 23.9
2016-Jun-28 21:16 180 23.9
2016-Jun-28 21:11 180 25.0
2016-Jun-28 21:06 180 25.0
2016-Jun-28 21:01 180 25.0
2016-Jun-28 20:51 016 25.0
2016-Jun-28 20:31 180 26.1
2016-Jun-28 20:21 078 26.1
2016-Jun-28 20:16 071 26.1
2016-Jun-28 20:06 202 26.1
2016-Jun-28 20:01 225 26.1
2016-Jun-28 19:56 180 26.1
2016-Jun-28 19:51 225 26.1
2016-Jun-28 19:46 202 26.1
2016-Jun-28 19:36 202 26.1
2016-Jun-28 19:31 158 26.1
2016-Jun-28 19:21 068 26.7
2016-Jun-28 19:16 071 26.7
2016-Jun-28 19:06 068 26.7
2016-Jun-28 18:56 090 27.2
2016-Jun-28 18:51 045 27.2
2016-Jun-28 18:46 148 27.2
2016-Jun-28 18:41 112 27.2
2016-Jun-28 18:36 022 27.2
2016-Jun-28 18:31 031 27.2
2016-Jun-28 18:26 022 27.8
2016-Jun-28 18:21 338 27.8
2016-Jun-28 18:16 27.8
2016-Jun-28 18:11 27.8
2016-Jun-28 18:06 27.8
2016-Jun-28 18:01 27.8
2016-Jun-28 17:56 022 28.3
2016-Jun-28 17:51 022 28.3
2016-Jun-28 17:46 28.3
2016-Jun-28 17:26 108 30.0
2016-Jun-28 17:21 068 30.0
2016-Jun-28 17:16 352 30.0
2016-Jun-28 17:11 022 30.0
2016-Jun-28 17:06 068 30.0
2016-Jun-28 17:01 022 30.0
2016-Jun-28 16:51 296 30.0
2016-Jun-28 16:46 343 30.0
2016-Jun-28 16:41 315 30.0
2016-Jun-28 16:36 022 30.0
2016-Jun-28 16:31 338 30.6
2016-Jun-28 16:26 30.0
2016-Jun-28 16:21 30.0
2016-Jun-28 16:16 018 30.0
2016-Jun-28 16:11 045 30.0
2016-Jun-28 16:06 30.0
2016-Jun-28 16:01 045 30.0
2016-Jun-28 15:51 004 31.1
2016-Jun-28 15:21 022 31.1
2016-Jun-28 15:16 022 31.1
2016-Jun-28 15:11 315 31.1
2016-Jun-28 15:06 090 31.1
2016-Jun-28 15:01 158 31.1
2016-Jun-28 14:56 045 31.7
2016-Jun-28 14:51 045 31.7
2016-Jun-28 14:46 129 32.2
2016-Jun-28 14:41 32.2
2016-Jun-28 14:36 068 32.2
2016-Jun-28 14:31 275 32.2
2016-Jun-28 14:26 338 31.7
2016-Jun-28 14:21 036 31.7
2016-Jun-28 14:11 090 31.7
2016-Jun-28 14:06 31.7
2016-Jun-28 14:01 292 31.7
2016-Jun-28 13:56 047 0 gusting 1 31.7
2016-Jun-28 13:51 357 31.7
2016-Jun-28 13:46 31.7
2016-Jun-28 13:36 31.7
2016-Jun-28 13:31 102 31.7
2016-Jun-28 13:26 090 0 gusting 1 31.7
2016-Jun-28 13:06 022 31.7
2016-Jun-28 12:51 30.6
2016-Jun-28 12:46 022 0 gusting 1 30.6
2016-Jun-28 12:41 022 1 gusting 1 30.6
2016-Jun-28 12:36 202 1 gusting 1 30.6
2016-Jun-28 12:26 045 31.7
2016-Jun-28 12:16 217 0 gusting 2 31.7
2016-Jun-28 12:06 202 1 gusting 1 30.0
2016-Jun-28 12:01 202 0 gusting 1 30.0
2016-Jun-28 11:56 022 30.0
2016-Jun-28 11:46 202 30.0
2016-Jun-28 11:41 183 30.0
2016-Jun-28 11:36 338 30.0
2016-Jun-28 11:31 090 0 30.0
2016-Jun-28 11:26 090 0 30.0
2016-Jun-28 11:21 090 0 gusting 0 30.0
2016-Jun-28 11:16 022 0 gusting 0 30.0
2016-Jun-28 11:11 180 30.6
2016-Jun-28 11:06 202 3 gusting 4 30.6
2016-Jun-28 10:56 202 31.1
2016-Jun-28 10:51 315 31.1
2016-Jun-28 10:46 045 4 gusting 4 31.1
2016-Jun-28 10:41 31.1
2016-Jun-28 10:36 31.1
2016-Jun-28 10:31 315 30.6
2016-Jun-28 10:26 022 30.6
2016-Jun-28 10:21 202 2 gusting 2 30.6
2016-Jun-28 10:16 202 0 gusting 2 30.6
2016-Jun-28 10:11 202 30.6
2016-Jun-28 10:06 111 30.6
2016-Jun-28 09:51 225 1 gusting 1 30.0
2016-Jun-28 09:46 022 29.4
2016-Jun-28 09:41 112 29.4
2016-Jun-28 09:36 180 1 gusting 1 29.4
2016-Jun-28 09:31 100 0 gusting 2 29.4
2016-Jun-28 09:21 166 29.4
2016-Jun-28 09:16 160 1 gusting 1 29.4
2016-Jun-28 09:11 079 29.4
2016-Jun-28 09:06 045 29.4
2016-Jun-28 09:01 158 30.0
2016-Jun-28 08:56 045 28.3
2016-Jun-28 08:41 022 28.3
2016-Jun-28 08:36 28.3
2016-Jun-28 08:31 28.3
2016-Jun-28 08:26 28.3
2016-Jun-28 08:16 045 27.8
2016-Jun-28 08:11 042 25.6
2016-Jun-28 08:01 045 25.6
2016-Jun-28 07:56 068 25.6
2016-Jun-28 07:51 057 25.6
2016-Jun-28 07:46 045 25.6
2016-Jun-28 07:36 068 25.6
2016-Jun-28 07:31 019 25.6
2016-Jun-28 07:26 180 25.6
2016-Jun-28 07:21 180 25.6
2016-Jun-28 07:16 029 25.6
2016-Jun-28 07:11 024 25.6
2016-Jun-28 07:06 045 25.6
2016-Jun-28 07:01 068 25.6
2016-Jun-28 06:56 022 24.4
2016-Jun-28 06:51 090 24.4
2016-Jun-28 06:46 076 24.4
2016-Jun-28 06:41 112 24.4
2016-Jun-28 06:36 058 23.9
2016-Jun-28 06:31 112 0 gusting 0 23.9
2016-Jun-28 06:26 176 23.3
2016-Jun-28 06:21 333 23.3
2016-Jun-28 06:16 022 22.8
2016-Jun-28 06:11 045 22.8
2016-Jun-28 06:06 062 22.8
2016-Jun-28 05:56 135 22.8
2016-Jun-28 05:51 032 22.8
2016-Jun-28 05:46 090 19.4
2016-Jun-28 05:41 180 0 gusting 1 19.4
2016-Jun-28 05:36 022 19.4
2016-Jun-28 05:31 022 19.4
2016-Jun-28 05:22 119 19.4
2016-Jun-28 05:16 180 19.4
2016-Jun-28 05:06 202 19.4
2016-Jun-28 04:56 022 19.4
2016-Jun-28 04:51 022 19.4
2016-Jun-28 04:46 022 19.4
2016-Jun-28 04:41 19.4
2016-Jun-28 04:26 198 18.9
2016-Jun-28 04:21 202 18.9
2016-Jun-28 04:16 180 18.9
2016-Jun-28 04:11 180 18.9
2016-Jun-28 04:06 180 18.9
2016-Jun-28 04:01 135 18.9
2016-Jun-28 03:51 202 18.9
2016-Jun-28 03:46 202 18.9
2016-Jun-28 03:41 202 18.9
2016-Jun-28 03:26 191 19.4
2016-Jun-28 03:21 180 19.4
2016-Jun-28 03:11 022 19.4
2016-Jun-28 02:56 025 19.4
2016-Jun-28 02:41 166 19.4
2016-Jun-28 02:26 090 19.4
2016-Jun-28 02:21 202 20.0
2016-Jun-28 02:16 219 20.0
2016-Jun-28 02:11 222 20.0
2016-Jun-28 02:06 180 20.0
2016-Jun-28 02:01 180 20.0
2016-Jun-28 01:56 216 20.0
2016-Jun-28 01:51 224 20.0
2016-Jun-28 01:46 225 20.0
2016-Jun-28 01:41 202 20.0
2016-Jun-28 01:36 202 20.6
2016-Jun-28 01:31 225 20.6
2016-Jun-28 01:26 135 20.6
2016-Jun-28 01:21 227 20.6
2016-Jun-28 01:16 022 20.6
2016-Jun-28 01:11 158 20.6
2016-Jun-28 01:06 158 20.6
2016-Jun-28 01:01 158 20.6
2016-Jun-28 00:56 225 20.6
2016-Jun-28 00:46 224 20.6
2016-Jun-28 00:41 225 20.6
2016-Jun-28 00:36 232 20.6
2016-Jun-28 00:31 229 20.6
2016-Jun-28 00:16 185 20.6
2016-Jun-28 00:11 184 20.6
2016-Jun-28 00:06 245 20.6
2016-Jun-27 23:56 202 20.6
2016-Jun-27 23:46 022 20.6
2016-Jun-27 23:41 202 20.6
2016-Jun-27 23:26 071 21.1
2016-Jun-27 23:21 112 21.1
2016-Jun-27 23:16 040 21.1
2016-Jun-27 23:11 050 21.1
2016-Jun-27 23:06 112 21.1
2016-Jun-27 23:01 158 21.1
2016-Jun-27 22:56 158 21.1
2016-Jun-27 22:51 158 21.1
2016-Jun-27 22:46 158 21.1
2016-Jun-27 22:41 158 21.1
2016-Jun-27 22:31 202 21.7
2016-Jun-27 22:26 202 21.7
2016-Jun-27 22:21 199 21.7
2016-Jun-27 22:16 225 21.7
2016-Jun-27 22:06 217 21.7
2016-Jun-27 22:01 225 22.2
2016-Jun-27 21:56 022 22.2
2016-Jun-27 21:46 197 22.2
2016-Jun-27 21:36 199 22.2
2016-Jun-27 21:26 202 22.2
2016-Jun-27 21:17 202 22.2
2016-Jun-27 21:06 079 22.2
2016-Jun-27 20:56 090 22.8
2016-Jun-27 20:51 200 22.8
2016-Jun-27 20:46 191 23.3
2016-Jun-27 20:31 090 23.3
2016-Jun-27 20:26 020 23.3
2016-Jun-27 20:21 045 23.3
2016-Jun-27 20:16 158 23.9
2016-Jun-27 19:46 24.4
2016-Jun-27 19:31 24.4
2016-Jun-27 19:26 24.4
2016-Jun-27 19:16 022 25.0
2016-Jun-27 19:11 051 25.0
2016-Jun-27 18:56 112 25.0
2016-Jun-27 18:51 002 25.6
2016-Jun-27 18:46 089 25.6
2016-Jun-27 18:41 25.6
2016-Jun-27 18:31 26.1
2016-Jun-27 18:21 068 26.1
2016-Jun-27 18:16 022 26.7
2016-Jun-27 18:11 045 26.7
2016-Jun-27 18:06 315 26.7
2016-Jun-27 17:56 108 26.7
2016-Jun-27 17:51 26.7
2016-Jun-27 17:41 27.2
2016-Jun-27 17:31 338 27.2
2016-Jun-27 17:21 022 27.8
2016-Jun-27 17:16 27.8
2016-Jun-27 17:06 022 28.3
2016-Jun-27 16:41 045 28.3
2016-Jun-27 16:36 28.3
2016-Jun-27 16:26 315 28.3
2016-Jun-27 16:21 350 28.3
2016-Jun-27 16:16 28.3
2016-Jun-27 16:11 022 28.3
2016-Jun-27 16:06 225 28.9
2016-Jun-27 15:56 020 28.9
2016-Jun-27 15:41 338 28.3
2016-Jun-27 15:36 338 28.3
2016-Jun-27 15:26 180 28.3
2016-Jun-27 15:16 045 28.3
2016-Jun-27 15:11 338 28.3
2016-Jun-27 15:01 180 0 gusting 0 28.3
2016-Jun-27 14:56 045 28.3
2016-Jun-27 14:51 315 28.3
2016-Jun-27 14:46 022 28.3
2016-Jun-27 14:41 068 28.9
2016-Jun-27 14:36 338 29.4
2016-Jun-27 14:26 044 29.4
2016-Jun-27 14:06 338 0 gusting 0 29.4
2016-Jun-27 14:01 045 0 gusting 0 29.4